Regional Weather Roundup
Issued by NWS

Home | Current Version | Previous Version | Graphics & Text | Print | Product List | Glossary On
Versions: 1 2 3 4 5 6 7 8 9 10 11 12 13 14 15 16 17 18 19 20 21 22 23 24 25 26 27 28 29 30 31 32 33 34 35 36 37 38 39 40 41 42 43 44 45 46 47 48 49 50
000
ASUS43 KOAX 031710
RWRNE

WEATHER ROUNDUP FOR NEBRASKA
NATIONAL WEATHER SERVICE OMAHA NE
1100 AM CST TUE MAR 03 2015

NOTES: SATELLITE DATA IS BEING USED TO AUGMENT CLOUD COVER ABOVE
       12000 FEET.
       "FAIR" INDICATES FEW OR NO CLOUDS BELOW 12,000 FEET WITH NO
       SIGNIFICANT WEATHER AND/OR OBSTRUCTIONS TO VISIBILITY.

  * THESE STATIONS DO NOT REPORT WEATHER SUCH AS RAIN...SNOW OR FOG.

NEZ001>004-019>022-054>056-031800-
NEBRASKA PANHANDLE

CITY           SKY/WX    TMP DP  RH WIND       PRES   REMARKS
SCOTTSBLUFF    LGT SNOW  19  11  70 N12       29.99R WCI   7
ALLIANCE       LGT SNOW  16   9  74 N21       29.96R WCI  -1
CHADRON        CLOUDY    17   8  67 NE12      30.02S WCI   4
KIMBALL        FLURRIES  17  10  76 N17       29.90R WCI   1
SIDNEY         CLOUDY    19   9  65 N21G32    29.93S WCI   3
$$

NEZ057>060-069>072-079>082-031800-
SOUTHWEST NEBRASKA

CITY           SKY/WX    TMP DP  RH WIND       PRES   REMARKS
NORTH PLATTE   CLOUDY    25  10  53 N23G32    29.95R WCI  10
IMPERIAL         N/A     24  12  60 N25G33    29.94R WCI   8
LEXINGTON      PTSUNNY   29  15  56 N23G35    29.92R WCI  15
MCCOOK         PTSUNNY   31  14  49 N22       29.92R WCI  18
OGALLALA       CLOUDY    22  13  67 N22       29.97R WCI   6
$$

NEZ005>010-023>029-035>040-094-031800-
NORTH CENTRAL NEBRASKA

CITY           SKY/WX    TMP DP  RH WIND       PRES   REMARKS
VALENTINE      CLOUDY    18   6  59 N29G39    29.99R WCI  -1
AINSWORTH      PTSUNNY   20  11  67 N29G36    29.98R WCI   1
BROKEN BOW     PTSUNNY   26  12  55 N32G40    29.92R WCI   9
O`NEILL        LGT SNOW  22  16  78 NW29G35   29.93R WCI   4
ORD            CLOUDY    24  10  55 N26G38    29.92R WCI   8
THEDFORD       CLOUDY    21  13  70 N20G28    29.97S WCI   6
$$

NEZ041-046>049-061>064-073>077-083>087-031800-
SOUTH CENTRAL NEBRASKA

CITY           SKY/WX    TMP DP  RH WIND       PRES   REMARKS
GRAND ISLAND   CLOUDY    28  16  60 N31G41    29.89R WCI  12
AURORA         CLOUDY    28  19  68 NW32      29.87R WCI  12
HASTINGS       CLOUDY    30  18  60 N31       29.86R WCI  15
HEBRON         CLOUDY    37  25  60 N16G31    29.83R WCI  28
HOLDREGE       CLOUDY    28  15  57 N23G33    29.88R WCI  14
KEARNEY *      PTSUNNY   28  14  54 N30G36    29.89R WCI  13
YORK           CLOUDY    32  25  74 N23G38    29.83R WCI  19
$$

NEZ011>018-030>034-042>045-031800-
NORTHEAST NEBRASKA

CITY           SKY/WX    TMP DP  RH WIND       PRES   REMARKS
NORFOLK        CLOUDY    25  15  66 NW32G40   29.86R WCI   8
ALBION         CLOUDY    26  14  60 NW30      29.88R WCI  10
BLAIR          CLOUDY    34  29  81 NW20G26   29.77R WCI  23
COLUMBUS *     CLOUDY    30  16  55 NW33G40   29.85R WCI  14
FREMONT        CLOUDY    37  29  72 NW28G38   29.81R WCI  24
TEKAMAH        CLOUDY    36  28  73 NW24      29.79R WCI  24
WAYNE          CLOUDY    27  18  71 NW35G44   29.85R WCI   9
$$

NEZ050>053-065>068-078-088>093-031800-
SOUTHEAST NEBRASKA

CITY           SKY/WX    TMP DP  RH WIND       PRES   REMARKS
LINCOLN        CLOUDY    37  27  67 NW21G30   29.82R WCI  26
OMAHA EPPLEY   CLOUDY    35  29  78 NW17G24   29.78R WCI  25
BEATRICE       CLOUDY    38  27  66 N23G30    29.81R WCI  27
FALLS CITY     CLOUDY    39  31  72 NW21G30   29.78R WCI  29
NEBRASKA CITY  CLOUDY    36  31  82 N23G29    29.78R WCI  24
PLATTSMOUTH    CLOUDY    34  30  83 NW20G25   29.78R WCI  23
$$

NEZ044-045-051>053-067-031800-
OMAHA AREA

CITY           SKY/WX    TMP DP  RH WIND       PRES   REMARKS
OMAHA EPPLEY   CLOUDY    35  29  78 NW17G24   29.78R WCI  25
BLAIR          CLOUDY    34  29  81 NW20G26   29.77R WCI  23
FREMONT        CLOUDY    37  29  72 NW28G38   29.81R WCI  24
MILLARD        CLOUDY    35  29  78 NW17G25   29.79R WCI  25
OFFUTT AFB     CLOUDY    36  30  80 NW14G23   29.77R WCI  27
PLATTSMOUTH    CLOUDY    34  30  83 NW20G25   29.78R WCI  23
WAHOO          FAIR      36  26  67 NW22G32   29.80R WCI  25
$$


USA.gov is the U.S. government's official web portal to all federal, state and local government web resources and services.